Torna al catalogo

STARLINK-30813

AttivoComunicazioniVLEO
NORAD 58213·PAYLOAD·🇺🇸 United States

Lanciato Nov 3, 2023 da Cape Canaveral Space Force Station

Loading…

Prossimi Passaggi (prossime 24 ore)

TLE

AggiornatoSource: CelesTrak SupGP

Epoca: Sep 15, 2026, 03:01 UTC

1 58213C 23170H   26258.12618056  .00005976  00000+0  21646-3 0  2580
2 58213  42.9995 204.2645 0001337 261.0272  68.9847 15.27574835    16

Traccia STARLINK-30813 in tempo reale con AllMySat

Download on the App Store